sat.trackr.live / text

‹ back to catalog

COSMOS 2594

NORAD 65270 · 2025-182D

PAYLOAD ACTIVE UNKNOWN

§ Identity

Operator
Country
CIS
Launch date
2025-08-21
Launch site
PLMSC
Launch vehicle
Mass (kg)
RCS (m²)

External: N2YO · Heavens-Above · Gunter

§ Orbital elements

Epoch: 2026-05-25T03:34:25.574304Z

Period
90.20 min
Inclination
96.5868°
Eccentricity
0.0003911
Mean motion
15.96419814 rev/d
Perigee alt
281.8 km
Apogee alt
287.0 km
Semi-major
6,662.5 km
B*
4.3788e-6
RAAN
76.7212°
Arg perigee
179.9256°
Mean anomaly
180.2023°
Rev number
4,403

§ Raw data

COSMOS 25941 65270U 25182D   26145.14890711  .00001236  18523-5  43788-5 0  99982 65270  96.5868  76.7212 0003911 179.9256 180.2023 15.96419814 44037

JSON: /api/v1/satellites/65270 · /tle

For live sub-satellite position, see the globe view (requires WebGL).

§ Visibility from observer

Set your observer location to see the next 7 days of passes ≥ 10°. The values pass through the URL so the page stays shareable.

No JS? Fill the form by hand. The geolocation button needs JavaScript.